EW1917 Weather Reports


Display with metric or nautical units.
time (UTC)temp
F
wind
direction
speed
MPH
gust
MPH
rain 1hr
in
rain 24hr
in
rain mn
in
humidity
%
barometer
mb
20260510064752 59 47 0.0 1.0 0.00 0.00 0.00 94 1011.9
20260510064251 59 47 0.0 1.0 0.00 0.00 0.00 94 1011.9
20260510063754 59 194 0.0 1.0 0.00 0.00 0.00 94 1012.0
20260510063300 59 230 0.0 2.0 0.00 0.00 0.00 94 1012.1
20260510062752 59 230 0.0 2.0 0.00 0.00 0.00 94 1012.1
20260510062251 59 230 1.0 1.0 0.00 0.00 0.00 94 1012.1
20260510061751 59 228 0.0 1.0 0.00 0.00 0.00 94 1012.1
20260510061300 59 205 0.0 3.0 0.00 0.00 0.00 94 1012.0
20260510060751 59 250 1.0 2.0 0.00 0.00 0.00 94 1011.9
20260510060254 59 250 1.0 2.0 0.00 0.00 0.00 94 1011.9
20260510055800 59 250 0.0 3.0 0.00 0.00 0.00 94 1011.8
20260510055252 59 281 1.0 3.0 0.00 0.00 0.00 94 1011.9
20260510054754 58 101 0.0 1.0 0.00 0.00 0.00 94 1011.9
20260510054256 58 101 0.0 0.0 0.00 0.00 0.00 94 1011.9
20260510053751 58 101 0.0 1.0 0.00 0.00 0.00 94 1012.0
20260510053253 58 101 1.0 3.0 0.00 0.00 0.00 94 1012.1
20260510052757 58 55 1.0 1.0 0.00 0.00 0.00 94 1012.1
20260510052257 58 55 0.0 1.0 0.00 0.00 0.00 93 1012.1
20260510051751 58 55 0.0 0.0 0.00 0.00 0.00 93 1012.1
20260510051251 58 55 0.0 1.0 0.00 0.00 0.00 93 1011.9
20260510050754 58 55 1.0 1.0 0.00 0.00 0.00 93 1012.0
20260510050251 58 55 0.0 2.0 0.00 0.00 0.00 93 1012.0
20260510045754 58 28 0.0 2.0 0.00 0.00 0.00 93 1011.9
20260510045251 58 28 1.0 3.0 0.00 0.00 0.00 93 1012.0
20260510044757 58 47 2.0 5.0 0.00 0.00 0.00 93 1011.9
20260510044251 58 22 3.0 4.0 0.00 0.00 0.00 93 1012.1
20260510043752 58 71 3.0 3.0 0.00 0.00 0.00 93 1012.3
20260510043251 57 49 0.0 4.0 0.00 0.00 0.00 93 1012.4
20260510042754 57 139 1.0 5.0 0.00 0.00 0.00 92 1012.5
20260510042252 57 112 2.0 3.0 0.00 0.00 0.00 92 1012.4
20260510041751 57 200 0.0 4.0 0.00 0.00 0.00 92 1012.3
20260510041254 58 276 3.0 4.0 0.00 0.00 0.00 92 1012.2
20260510040754 57 128 3.0 5.0 0.00 0.00 0.00 92 1012.0
20260510040251 57 140 4.0 8.0 0.00 0.00 0.00 91 1012.2
20260510035755 57 123 5.0 7.0 0.00 0.00 0.00 90 1012.2
20260510035251 58 142 0.0 3.0 0.00 0.00 0.00 91 1012.1
20260510034757 58 105 1.0 2.0 0.00 0.00 0.00 90 1012.0
20260510034251 58 245 0.0 3.0 0.00 0.00 0.00 90 1011.9
20260510033756 59 277 3.0 4.0 0.00 0.00 0.00 91 1011.9
20260510033251 58 107 3.0 8.0 0.00 0.00 0.00 92 1011.9
20260510032751 57 109 3.0 6.0 0.00 0.00 0.00 92 1012.0
20260510032253 57 111 3.0 5.0 0.00 0.00 0.00 91 1012.3
20260510031754 58 150 1.0 3.0 0.00 0.00 0.00 91 1012.3
20260510031253 58 267 0.0 3.0 0.00 0.00 0.00 92 1012.0
20260510030751 58 132 0.0 1.0 0.00 0.00 0.00 92 1012.0
20260510030251 57 132 1.0 2.0 0.00 0.00 0.00 92 1012.2
20260510025757 57 132 2.0 2.0 0.00 0.00 0.00 92 1012.4
20260510025251 57 132 0.0 1.0 0.00 0.00 0.00 92 1012.5
20260510024757 57 132 1.0 2.0 0.00 0.00 0.00 91 1012.5
20260510024251 58 132 2.0 2.0 0.00 0.00 0.00 90 1012.7
20260510023751 58 233 0.0 1.0 0.00 0.00 0.00 90 1012.8
20260510023254 58 233 0.0 3.0 0.00 0.00 0.00 91 1012.8
20260510022754 58 140 0.0 2.0 0.00 0.00 0.00 91 1012.8
20260510022255 58 139 0.0 3.0 0.00 0.00 0.00 92 1013.0
20260510021751 58 112 2.0 3.0 0.00 0.00 0.00 91 1013.1
20260510021252 58 33 0.0 3.0 0.00 0.00 0.00 92 1013.2
20260510020752 57 60 1.0 3.0 0.00 0.00 0.00 91 1013.2
20260510020254 57 120 1.0 2.0 0.00 0.00 0.00 91 1013.3
20260510015752 57 120 1.0 2.0 0.00 0.00 0.00 91 1013.4
20260510015257 57 120 0.0 3.0 0.00 0.00 0.00 91 1013.4
20260510014757 58 120 0.0 1.0 0.00 0.00 0.00 91 1013.4
20260510014253 58 120 0.0 1.0 0.00 0.00 0.00 91 1013.5
20260510013758 58 120 1.0 1.0 0.00 0.00 0.00 91 1013.4
20260510013254 58 120 0.0 3.0 0.00 0.00 0.00 92 1013.4
20260510012758 57 120 2.0 3.0 0.00 0.00 0.00 92 1013.4
20260510012257 57 195 1.0 1.0 0.00 0.00 0.00 91 1013.5
20260510011754 57 237 0.0 2.0 0.00 0.00 0.00 91 1013.5
20260510011300 58 236 2.0 4.0 0.00 0.00 0.00 92 1013.5
20260510010751 57 130 1.0 4.0 0.00 0.00 0.00 91 1013.5
20260510010254 57 121 2.0 5.0 0.00 0.00 0.00 91 1013.5
20260510005757 58 205 0.0 2.0 0.00 0.00 0.00 91 1013.5
20260510005254 57 63 1.0 2.0 0.00 0.00 0.00 91 1013.4
20260510004751 57 132 2.0 3.0 0.00 0.00 0.00 90 1013.4
20260510004251 58 167 3.0 3.0 0.00 0.00 0.00 90 1013.5
20260510003754 58 167 3.0 3.0 0.00 0.00 0.00 90 1013.5
20260510003254 58 180 0.0 1.0 0.00 0.00 0.00 91 1013.5
20260510002754 58 70 0.0 2.0 0.00 0.00 0.00 91 1013.5
20260510002258 58 70 0.0 0.0 0.00 0.00 0.00 91 1013.6
20260510001754 58 70 0.0 2.0 0.00 0.00 0.00 91 1013.7
20260510001253 58 101 2.0 2.0 0.00 0.00 0.00 90 1013.8
20260510000751 58 118 1.0 2.0 0.00 0.00 0.00 90 1013.8
20260510000251 58 118 1.0 1.0 0.00 0.00 0.00 90 1014.0
20260509235752 58 118 0.0 1.0 0.00 0.00 0.00 90 1014.0
20260509235254 59 118 0.0 2.0 0.00 0.00 0.00 90 1014.2
20260509234751 59 118 2.0 2.0 0.00 0.00 0.00 90 1014.1
20260509234251 59 118 0.0 1.0 0.00 0.00 0.00 90 1014.1
20260509233751 59 118 1.0 3.0 0.00 0.00 0.00 90 1014.1
20260509233251 59 118 2.0 3.0 0.00 0.00 0.00 89 1014.0
20260509232755 59 118 0.0 1.0 0.00 0.00 0.00 89 1014.0
20260509232254 59 118 1.0 2.0 0.00 0.00 0.00 89 1014.1
20260509231751 59 118 0.0 1.0 0.00 0.00 0.00 89 1014.1
20260509231254 59 118 1.0 2.0 0.00 0.00 0.00 89 1014.1
20260509230755 59 118 1.0 2.0 0.00 0.00 0.00 88 1014.1
20260509230254 59 118 1.0 2.0 0.00 0.00 0.00 88 1014.1
20260509225754 59 118 1.0 2.0 0.00 0.00 0.00 88 1014.0
20260509225251 59 118 0.0 1.0 0.00 0.00 0.00 88 1014.1
20260509224751 59 118 0.0 2.0 0.00 0.00 0.00 88 1014.0
20260509224254 59 118 1.0 3.0 0.00 0.00 0.00 88 1014.0
20260509223751 59 118 2.0 3.0 0.00 0.00 0.00 88 1014.0
20260509223251 59 140 1.0 2.0 0.00 0.00 0.00 87 1014.0
20260509222754 60 140 0.0 3.0 0.00 0.00 0.00 87 1014.0
20260509222254 60 140 0.0 1.0 0.00 0.00 0.00 86 1013.9
20260509221754 60 140 0.0 2.0 0.00 0.00 0.00 86 1013.9
20260509221251 60 78 2.0 4.0 0.00 0.00 0.00 87 1013.9
20260509220756 60 113 2.0 2.0 0.00 0.00 0.00 87 1013.9
20260509220256 60 113 0.0 1.0 0.00 0.00 0.00 86 1014.1
20260509215752 60 113 0.0 2.0 0.00 0.00 0.00 86 1014.0
20260509215254 60 113 2.0 2.0 0.00 0.00 0.00 86 1013.9
20260509214754 60 113 0.0 1.0 0.00 0.00 0.00 87 1013.9
20260509214251 60 113 0.0 2.0 0.00 0.00 0.00 86 1013.9
20260509213752 60 113 2.0 2.0 0.00 0.00 0.00 86 1014.0
20260509213251 61 113 1.0 3.0 0.00 0.00 0.00 86 1014.0
20260509212751 61 113 2.0 3.0 0.00 0.00 0.00 85 1014.1
20260509212252 61 113 0.0 1.0 0.00 0.00 0.00 85 1014.1
20260509211751 61 113 0.0 1.0 0.00 0.00 0.00 84 1014.1
20260509211300 61 113 0.0 0.0 0.00 0.00 0.00 84 1014.0
20260509210801 61 113 0.0 1.0 0.00 0.00 0.00 85 1014.0
20260509210254 62 113 0.0 2.0 0.00 0.00 0.00 85 1014.0
20260509205751 61 113 2.0 2.0 0.00 0.00 0.00 85 1014.0
20260509205254 62 113 2.0 2.0 0.00 0.00 0.00 84 1014.1
20260509204751 62 113 2.0 2.0 0.00 0.00 0.00 84 1014.1
20260509204253 62 113 1.0 3.0 0.00 0.00 0.00 83 1014.1
20260509203754 62 113 1.0 2.0 0.00 0.00 0.00 83 1014.1
20260509203253 62 113 0.0 0.0 0.00 0.00 0.00 82 1014.2
20260509202751 62 113 0.0 0.0 0.00 0.00 0.00 82 1014.2
20260509202251 62 113 0.0 0.0 0.00 0.00 0.00 82 1014.1
20260509201754 62 113 0.0 2.0 0.00 0.00 0.00 82 1014.1
20260509201253 62 113 1.0 3.0 0.00 0.00 0.00 82 1014.1
20260509200754 62 99 2.0 2.0 0.00 0.00 0.00 81 1014.1
20260509200251 63 51 1.0 2.0 0.00 0.00 0.00 80 1014.0
20260509195754 63 90 1.0 2.0 0.00 0.00 0.00 80 1014.0
20260509195255 63 90 2.0 3.0 0.00 0.00 0.00 79 1013.9
20260509194755 63 90 2.0 3.0 0.00 0.00 0.00 79 1013.8
20260509194254 64 101 2.0 3.0 0.00 0.00 0.00 78 1013.8
20260509193751 64 101 2.0 2.0 0.00 0.00 0.00 78 1013.7
20260509193254 64 98 1.0 1.0 0.00 0.00 0.00 78 1013.6
20260509192751 64 98 0.0 2.0 0.00 0.00 0.00 77 1013.5
20260509192300 64 96 1.0 3.0 0.00 0.00 0.00 76 1013.4
20260509191757 64 92 3.0 3.0 0.00 0.00 0.00 76 1013.3
20260509191251 64 91 2.0 3.0 0.00 0.00 0.00 76 1013.3
20260509190752 65 91 2.0 3.0 0.00 0.00 0.00 75 1013.1
20260509190254 65 94 1.0 4.0 0.00 0.00 0.00 74 1013.0
20260509185753 65 92 3.0 4.0 0.00 0.00 0.00 74 1012.9
20260509185251 65 96 1.0 3.0 0.00 0.00 0.00 74 1012.8
20260509184751 65 88 3.0 4.0 0.00 0.00 0.00 75 1012.6
20260509184254 66 94 2.0 3.0 0.00 0.00 0.00 75 1012.6
20260509183758 66 119 2.0 2.0 0.00 0.00 0.00 76 1012.5
20260509183251 66 119 0.0 3.0 0.00 0.00 0.00 75 1012.4
20260509182751 66 88 3.0 4.0 0.00 0.00 0.00 75 1012.4
20260509182251 67 97 3.0 6.0 0.00 0.00 0.00 74 1012.3
20260509181752 67 93 4.0 6.0 0.00 0.00 0.00 74 1012.3
20260509181254 68 94 3.0 4.0 0.00 0.00 0.00 73 1012.3
20260509180751 68 100 2.0 3.0 0.00 0.00 0.00 73 1012.3
20260509180251 68 92 1.0 4.0 0.00 0.00 0.00 72 1012.4
20260509175754 69 113 1.0 3.0 0.00 0.00 0.00 72 1012.4
20260509175253 69 109 2.0 4.0 0.00 0.00 0.00 71 1012.5
20260509174757 69 115 2.0 3.0 0.00 0.00 0.00 71 1012.4
20260509174251 70 109 2.0 3.0 0.00 0.00 0.00 71 1012.4
20260509173751 70 90 2.0 3.0 0.00 0.00 0.00 71 1012.4
20260509173257 70 95 2.0 2.0 0.00 0.00 0.00 70 1012.4
20260509172754 71 138 1.0 2.0 0.00 0.00 0.00 70 1012.4
20260509172300 71 138 1.0 3.0 0.00 0.00 0.00 68 1012.5
20260509171754 71 165 0.0 1.0 0.00 0.00 0.00 67 1012.4
20260509171251 72 168 0.0 2.0 0.00 0.00 0.00 67 1012.3
20260509170753 72 225 0.0 2.0 0.00 0.00 0.00 67 1012.3
20260509170300 72 183 0.0 2.0 0.00 0.00 0.00 67 1012.3
20260509165751 72 187 1.0 2.0 0.00 0.00 0.00 64 1012.2
20260509165254 72 290 0.0 2.0 0.00 0.00 0.00 64 1012.1
20260509164751 72 227 0.0 2.0 0.00 0.00 0.00 64 1012.2
20260509164251 73 195 0.0 2.0 0.00 0.00 0.00 63 1012.2
20260509163757 73 285 2.0 3.0 0.00 0.00 0.00 64 1012.2
20260509163254 73 238 0.0 2.0 0.00 0.00 0.00 62 1012.2
20260509162751 73 159 0.0 4.0 0.00 0.00 0.00 63 1012.3
20260509162301 73 186 1.0 4.0 0.00 0.00 0.00 61 1012.3
20260509161751 74 177 1.0 4.0 0.00 0.00 0.00 61 1012.3
20260509161254 74 252 0.0 4.0 0.00 0.00 0.00 61 1012.4
20260509160751 74 221 1.0 5.0 0.00 0.00 0.00 60 1012.4
20260509160251 75 131 2.0 8.0 0.00 0.00 0.00 59 1012.4
20260509155754 75 114 1.0 7.0 0.00 0.00 0.00 57 1012.5
20260509155257 76 283 3.0 8.0 0.00 0.00 0.00 50 1012.5
20260509154757 75 169 1.0 7.0 0.00 0.00 0.00 50 1012.6
20260509154257 75 163 1.0 4.0 0.00 0.00 0.00 51 1012.5
20260509153754 74 193 1.0 4.0 0.00 0.00 0.00 49 1012.6
20260509153255 74 133 2.0 3.0 0.00 0.00 0.00 49 1012.6
20260509152800 75 194 1.0 3.0 0.00 0.00 0.00 48 1012.7
20260509152251 74 214 1.0 2.0 0.00 0.00 0.00 52 1012.7
20260509151754 74 223 1.0 1.0 0.00 0.00 0.00 50 1012.7
20260509151257 75 223 0.0 0.0 0.00 0.00 0.00 54 1012.8
20260509150753 75 223 0.0 0.0 0.00 0.00 0.00 49 1012.7
20260509150251 74 223 0.0 0.0 0.00 0.00 0.00 46 1012.8
20260509145751 74 223 0.0 2.0 0.00 0.00 0.00 45 1012.7
20260509145257 75 186 0.0 3.0 0.00 0.00 0.00 47 1012.7
20260509144759 76 153 2.0 2.0 0.00 0.00 0.00 48 1012.8
20260509144258 76 175 2.0 5.0 0.00 0.00 0.00 44 1012.8
20260509143757 76 246 4.0 6.0 0.00 0.00 0.00 47 1012.9
20260509143251 76 241 0.0 4.0 0.00 0.00 0.00 48 1012.9
20260509142752 76 155 0.0 8.0 0.00 0.00 0.00 45 1013.0
20260509142252 76 196 4.0 5.0 0.00 0.00 0.00 44 1013.0
20260509141751 76 193 3.0 6.0 0.00 0.00 0.00 45 1013.1
20260509141251 76 258 2.0 9.0 0.00 0.00 0.00 46 1013.1
20260509140752 76 259 3.0 9.0 0.00 0.00 0.00 44 1013.1
20260509140254 76 246 5.0 8.0 0.00 0.00 0.00 43 1013.2
20260509135751 76 306 5.0 10.0 0.00 0.00 0.00 42 1013.2
20260509135257 76 261 4.0 10.0 0.00 0.00 0.00 41 1013.3
20260509134755 76 288 7.0 9.0 0.00 0.00 0.00 45 1013.3
20260509134254 76 272 1.0 7.0 0.00 0.00 0.00 44 1013.3
20260509133755 76 238 1.0 7.0 0.00 0.00 0.00 44 1013.3
20260509133251 76 284 2.0 9.0 0.00 0.00 0.00 45 1013.3
20260509132758 76 253 7.0 8.0 0.00 0.00 0.00 43 1013.3
20260509132251 76 295 3.0 7.0 0.00 0.00 0.00 42 1013.3
20260509131757 77 128 2.0 4.0 0.00 0.00 0.00 44 1013.4
20260509131251 77 173 3.0 7.0 0.00 0.00 0.00 45 1013.4
20260509130754 76 244 4.0 7.0 0.00 0.00 0.00 45 1013.5
20260509130251 76 252 7.0 10.0 0.00 0.00 0.00 46 1013.4
20260509125751 75 235 0.0 6.0 0.00 0.00 0.00 49 1013.5
20260509125257 75 288 4.0 10.0 0.00 0.00 0.00 48 1013.5
20260509124754 75 259 11.0 11.0 0.00 0.00 0.00 47 1013.5
20260509124251 75 232 6.0 10.0 0.00 0.00 0.00 45 1013.5
20260509123751 75 300 7.0 9.0 0.00 0.00 0.00 47 1013.5
20260509123251 76 303 4.0 8.0 0.00 0.00 0.00 47 1013.6
20260509122752 75 284 3.0 8.0 0.00 0.00 0.00 50 1013.7
20260509122251 75 252 4.0 6.0 0.00 0.00 0.00 49 1013.7
20260509121751 75 258 6.0 11.0 0.00 0.00 0.00 51 1013.7
20260509121251 75 138 5.0 10.0 0.00 0.00 0.00 50 1013.7
20260509120800 75 347 2.0 5.0 0.00 0.00 0.00 52 1013.8
20260509120257 75 166 3.0 7.0 0.00 0.00 0.00 49 1013.7
20260509115754 74 277 6.0 8.0 0.00 0.00 0.00 48 1013.7
20260509115254 75 255 1.0 6.0 0.00 0.00 0.00 47 1013.8
20260509114754 74 256 2.0 8.0 0.00 0.00 0.00 48 1013.8
20260509114257 74 303 4.0 5.0 0.00 0.00 0.00 43 1013.9
20260509113757 74 281 2.0 9.0 0.00 0.00 0.00 43 1013.9
20260509113251 74 272 2.0 8.0 0.00 0.00 0.00 47 1013.8
20260509112751 74 263 7.0 9.0 0.00 0.00 0.00 42 1013.8
20260509112254 73 310 5.0 9.0 0.00 0.00 0.00 43 1013.9
20260509111754 73 269 2.0 6.0 0.00 0.00 0.00 43 1013.9
20260509111257 73 63 0.0 8.0 0.00 0.00 0.00 42 1013.9
20260509110751 73 303 5.0 9.0 0.00 0.00 0.00 43 1013.8
20260509110254 73 311 8.0 9.0 0.00 0.00 0.00 43 1013.8
20260509105751 73 303 3.0 4.0 0.00 0.00 0.00 44 1013.9
20260509105251 73 290 1.0 4.0 0.00 0.00 0.00 43 1014.0
20260509104757 72 273 4.0 4.0 0.00 0.00 0.00 44 1013.9
20260509104257 72 250 2.0 4.0 0.00 0.00 0.00 44 1014.0
20260509103751 72 46 1.0 9.0 0.00 0.00 0.00 42 1014.1
20260509103251 72 59 4.0 8.0 0.00 0.00 0.00 43 1014.1
20260509102751 72 109 1.0 7.0 0.00 0.00 0.00 43 1014.1
20260509102305 72 160 8.0 10.0 0.00 0.00 0.00 43 1014.1
20260509101757 72 355 0.0 5.0 0.00 0.00 0.00 43 1014.1
20260509101300 72 61 0.0 7.0 0.00 0.00 0.00 42 1014.2
20260509100751 71 135 2.0 8.0 0.00 0.00 0.00 44 1014.2
20260509100300 71 94 2.0 10.0 0.00 0.00 0.00 43 1014.2
20260509095754 71 120 8.0 9.0 0.00 0.00 0.00 44 1014.2
20260509095251 71 46 4.0 9.0 0.00 0.00 0.00 46 1014.3
20260509094751 71 59 4.0 11.0 0.00 0.00 0.00 43 1014.3
20260509094300 71 55 3.0 10.0 0.00 0.00 0.00 44 1014.3
20260509093751 71 50 10.0 10.0 0.00 0.00 0.00 41 1014.3
20260509093254 71 107 3.0 7.0 0.00 0.00 0.00 43 1014.3
20260509092751 71 145 4.0 7.0 0.00 0.00 0.00 44 1014.4
20260509092251 70 187 1.0 3.0 0.00 0.00 0.00 50 1014.6
20260509091757 70 314 1.0 2.0 0.00 0.00 0.00 48 1014.6
20260509091251 69 184 0.0 5.0 0.00 0.00 0.00 50 1014.6
20260509090758 69 168 5.0 5.0 0.00 0.00 0.00 49 1014.6
20260509090251 69 225 2.0 4.0 0.00 0.00 0.00 54 1014.6
20260509085751 68 243 3.0 4.0 0.00 0.00 0.00 57 1014.7
20260509085254 68 14 4.0 4.0 0.00 0.00 0.00 55 1014.6
20260509084755 67 159 0.0 2.0 0.00 0.00 0.00 58 1014.6
20260509084254 67 321 1.0 4.0 0.00 0.00 0.00 60 1014.7
20260509083751 66 264 3.0 3.0 0.00 0.00 0.00 60 1014.7
20260509083251 66 265 0.0 4.0 0.00 0.00 0.00 62 1014.7
20260509082754 66 263 1.0 3.0 0.00 0.00 0.00 65 1014.8
20260509082259 66 251 0.0 2.0 0.00 0.00 0.00 66 1014.9
20260509081754 65 248 1.0 4.0 0.00 0.00 0.00 69 1015.0
20260509081251 65 230 2.0 3.0 0.00 0.00 0.00 70 1015.1
20260509080753 64 252 0.0 2.0 0.00 0.00 0.00 71 1015.1
20260509080251 64 274 1.0 2.0 0.00 0.00 0.00 72 1015.1
20260509075751 63 271 1.0 2.0 0.00 0.00 0.00 72 1015.2
20260509075252 63 246 0.0 2.0 0.00 0.00 0.00 73 1015.3
20260509074757 62 252 2.0 3.0 0.00 0.00 0.00 74 1015.3
20260509074251 61 273 1.0 2.0 0.00 0.00 0.00 73 1015.3
20260509073754 61 273 1.0 2.0 0.00 0.00 0.00 73 1015.5
20260509073251 61 248 2.0 2.0 0.00 0.00 0.00 75 1015.5
20260509072751 61 248 0.0 2.0 0.00 0.00 0.00 75 1015.5
20260509072251 61 284 2.0 3.0 0.00 0.00 0.00 76 1015.5
20260509071755 61 279 1.0 2.0 0.00 0.00 0.00 74 1015.5
20260509071300 61 123 0.0 2.0 0.00 0.00 0.00 71 1015.6
20260509070754 60 123 2.0 2.0 0.00 0.00 0.00 74 1015.6
20260509070251 59 123 0.0 1.0 0.00 0.00 0.00 79 1015.7
20260509065752 59 123 0.0 0.0 0.00 0.00 0.00 82 1015.8
20260509065306 58 123 0.0 0.0 0.00 0.00 0.00 83 1015.8